Vertical_Velocity
2 1 -0 1 -1 1 1 1 0 0 -2 0 -1 1 0 -0 -0 -1 -1 -1 -2 -1 -1 -2 -4 -3 -3 -1 -0 1 0 1 1 0 3 0 -0 1 1 -1 -3 1 1 0 -1 0 1 0 0
-0 1 0 -0 1 0 2 2 -1 1 -1 1 -1 1 -1 -1 -0 1 -1 -1 -1 -2 -1 -2 -2 -2 -0 0 0 2 0 0 0 1 2 1 1 -1 -1 -1 1 -1 2 1 1 -0 0 -0 -1
-0 -0 1 3 1 -0 -0 0 1 -0 -0 -0 1 -1 0 0 -2 -0 -2 -2 -2 -2 -2 -2 -1 -2 -1 -1 -2 -0 0 0 1 1 1 0 -1 -2 -1 -1 -2 -1 1 1 0 1 0 -3 -1
-0 0 1 2 -1 -0 1 0 0 -3 2 -0 1 -1 0 -1 -0 -2 -1 -2 -1 -2 -2 -1 -2 -1 -2 -1 1 1 1 1 0 2 2 1 -1 0 -1 0 -1 0 0 0 1 0 0 -0 1
1 -1 1 2 0 1 -0 1 -2 1 0 -1 1 -1 -0 0 -1 -1 -1 -1 -1 -2 -2 -1 -1 -2 -2 -1 0 1 0 1 0 1 1 1 0 1 0 0 -0 0 2 1 1 2 2 -0 1
-2 0 2 0 -1 -0 1 2 -1 1 -0 -1 -1 0 1 -2 -3 -1 -1 -1 -2 -2 -1 -0 -1 -2 -1 -1 -0 1 1 -1 1 0 0 1 0 1 1 2 0 0 -1 -1 -1 0 0 -1 1
-2 -0 1 2 -1 2 -0 2 -1 1 -0 1 3 -0 -0 -1 -1 -2 -2 -2 -4 -1 -0 -1 -2 -1 -2 -1 -2 -1 -0 -0 -0 1 0 -0 1 2 1 -0 -2 -2 -2 -2 -0 -0 -1 -0 -1
-2 -4 -1 4 -1 1 -2 0 0 -1 1 1 1 -1 -2 -1 -2 -1 -1 -2 -3 -0 -1 1 -2 -2 -2 -3 -3 -1 1 0 -0 1 0 0 1 1 -1 2 -0 -0 -0 -1 1 -0 0 -0 -1
-2 -5 2 4 1 -2 -0 -2 1 0 0 1 0 0 -0 -1 -1 -1 -3 -3 -2 -0 -0 2 -3 -1 -1 -0 0 -0 1 0 1 1 1 1 1 0 -0 0 0 2 -1 2 -0 1 0 0 -0
-5 -1 7 2 -2 1 -2 0 -1 1 1 1 -1 -1 -1 -2 -2 -0 -0 -3 -1 1 1 0 -0 0 -1 -1 -1 -1 -1 -1 -1 -1 0 0 -0 -1 0 1 1 -1 -1 -1 0 1 1 -0 -0
1 4 -0 5 0 -2 -2 3 -1 1 2 -2 -2 -1 -1 0 0 -2 -1 -1 -1 3 -1 2 -1 -1 0 -2 -1 -1 -0 -0 -1 -1 -1 -1 -0 -0 0 0 -0 -1 -1 0 0 -1 -1 -1 1
-4 -2 2 4 -1 -1 -1 -1 2 1 1 -0 -1 -0 -0 0 -1 0 -2 -0 0 2 -1 -1 0 -2 1 -2 -1 -3 0 0 -1 -1 -1 0 2 1 0 1 -1 -1 2 -2 0 0 1 1 -0
-2 1 5 4 -2 -2 -0 -1 -5 6 1 0 -3 0 2 -3 1 -1 -1 -0 1 -1 -2 1 -3 -0 -2 -0 -1 -2 -1 -1 -2 -1 1 -0 2 1 -1 -2 -1 0 1 -0 -1 -0 0 1 0
10 -1 5 -2 -2 -2 3 -3 -5 4 1 -8 1 -0 -1 -0 1 -1 -0 0 1 -1 -0 0 -0 1 -1 0 1 -2 -0 -0 0 3 2 1 0 0 -0 -2 -2 -0 0 1 -1 0 -0 -0 -0
-1 -2 0 4 -2 1 -1 -3 7 -6 -0 -4 4 0 -2 1 0 0 -0 0 -2 -1 -1 1 1 -3 -1 -1 1 -1 -0 1 2 1 0 -0 1 1 1 1 -1 1 -0 2 3 1 -0 -1 -1
-7 -3 -6 7 -2 4 -3 5 3 -2 -0 -1 -1 -1 1 1 -1 -1 -1 -1 -1 1 2 0 -2 -0 -0 -2 -0 -1 3 3 1 0 0 -1 -0 1 1 -1 0 -0 -0 -0 -0 -0 -0 -1 -0
-9 3 6 -3 1 -0 -11 12 -9 1 -0 -1 -0 1 -0 -1 -0 -0 -1 -1 -1 -0 -1 -1 -1 -1 -0 1 1 5 2 1 0 1 0 -0 0 2 1 0 -1 -1 -1 -1 -0 -2 0 -2 -3
2 1 2 3 -2 -3 -5 12 -7 1 1 -1 1 2 0 1 -1 -1 -0 -1 -0 -1 -1 0 1 -1 -0 0 2 2 -1 -0 -1 -0 0 0 -0 -1 -0 -0 -0 -0 -2 -2 -2 -1 -2 -2 -1
6 -1 3 8 -2 -4 -0 4 -1 -0 3 -0 1 1 1 -1 -2 -1 -2 1 1 0 1 2 0 -1 -0 1 1 2 1 0 1 0 0 0 1 1 1 0 -1 -2 -1 -1 -2 -2 -2 -3 -7
1 -2 1 2 -4 -4 0 2 4 -3 2 -1 0 -0 -2 -2 -2 -2 1 -1 -0 0 1 -0 -1 -1 1 1 0 1 1 1 -0 1 0 -1 -0 -1 -2 -2 -1 -2 -1 -1 -2 -1 1 -1 -4
1 2 7 -1 -3 1 0 6 2 -0 1 -0 -0 -1 -1 -1 -1 -1 -0 -1 -0 -0 -1 0 0 1 1 0 1 -0 -2 -1 0 -1 -2 -2 -2 -1 -0 -1 -1 -1 -2 -1 -1 0 -1 6 8
-1 1 5 0 -1 -3 -0 2 3 0 1 -2 -1 -2 -2 -2 -0 -0 0 0 0 -0 0 1 2 1 1 2 2 2 3 0 -1 2 2 -1 -1 -2 -1 -1 -0 1 1 2 3 1 -0 -3 -1
11 4 0 -3 -1 -1 0 2 2 2 -3 1 2 -1 2 -0 0 1 1 -0 -0 0 1 1 1 2 2 1 1 0 -1 1 1 -0 -1 0 1 2 2 2 1 -0 -1 -1 -1 -2 -5 -7 -7
0 5 -1 -0 2 -0 -1 2 11 1 -2 -2 1 -1 -1 -0 1 2 -0 -0 1 1 2 3 2 2 1 1 0 0 1 2 1 1 2 3 2 0 -1 -2 -1 -1 -2 -3 -3 -3 -1 1 -1
2 1 -2 -0 -4 -2 -1 1 8 -3 1 -1 -2 -1 -1 -2 -0 1 0 0 1 1 2 3 3 2 0 0 -0 1 -0 0 0 0 1 1 -0 -1 -1 -2 -2 -1 -0 1 1 0 -0 -1 -2
0 4 -2 -2 -2 1 0 -1 3 -0 1 -1 -0 -1 -0 -2 -2 -1 -1 0 1 1 3 2 1 -0 1 0 0 0 1 0 -0 1 1 0 1 0 0 0 -0 -1 -1 -0 0 -2 -3 -1 -2
-1 -6 -2 -0 -0 5 1 -0 2 -1 0 -0 -1 -0 -3 -0 0 1 2 1 0 -0 1 1 1 -0 -2 0 -0 1 -1 1 2 1 1 -0 0 0 0 -1 -1 -1 -1 -1 -0 -1 -2 -0 -3
2 12 -6 -4 -0 4 2 0 -0 -4 -2 -2 -1 -2 -0 1 0 1 2 0 -1 -0 0 -0 -1 1 -1 -2 -0 -1 1 1 0 0 0 -1 -2 -2 -2 -3 -1 -1 -1 -2 -1 -0 -0 -2 -0
-9 -6 -7 -3 -6 3 3 -3 0 2 -1 -2 -1 1 -1 -3 -1 1 -0 -1 1 0 -1 -0 0 0 -2 -0 -1 0 1 0 0 -2 -4 -1 -1 -1 -1 0 0 -1 0 -2 -3 -3 -3 -3 -2
2 8 5 4 3 0 2 4 -1 0 -1 1 -1 0 -1 -0 1 1 1 -1 -1 -0 -0 -0 -0 -0 -0 -0 0 0 -0 -2 -1 0 0 -2 -2 -1 -2 -2 -2 -1 -2 -3 -3 -3 -2 -4 -3
Height
5841 5843 5846 5848 5852 5850 5852 5852 5852 5854 5856 5859 5861 5863 5864 5863 5863 5865 5862 5862 5862 5861 5860 5860 5859 5858 5858 5857 5857 5856 5855 5855 5855 5855 5855 5855 5855 5855 5855 5853 5853 5853 5851 5851 5851 5851 5849 5848 5846
5839 5839 5842 5844 5847 5847 5847 5847 5849 5853 5855 5856 5857 5859 5860 5860 5860 5859 5860 5860 5860 5860 5859 5859 5858 5857 5856 5855 5854 5854 5853 5852 5852 5852 5852 5853 5852 5852 5852 5852 5850 5850 5849 5848 5847 5847 5846 5845 5844
5835 5836 5838 5840 5842 5843 5842 5843 5847 5850 5852 5852 5853 5855 5856 5856 5855 5856 5857 5857 5858 5858 5858 5857 5856 5855 5854 5853 5852 5852 5851 5850 5850 5850 5850 5850 5850 5850 5850 5849 5848 5847 5846 5845 5844 5843 5843 5842 5841
5831 5834 5835 5836 5837 5840 5839 5842 5845 5846 5848 5848 5850 5851 5852 5852 5852 5853 5854 5854 5855 5855 5855 5855 5854 5853 5853 5852 5851 5850 5849 5849 5847 5847 5847 5847 5847 5847 5847 5846 5845 5844 5843 5842 5841 5841 5839 5838 5837
5827 5829 5830 5832 5834 5835 5836 5839 5843 5843 5845 5845 5847 5848 5847 5847 5848 5850 5851 5852 5852 5852 5852 5852 5852 5851 5851 5850 5849 5848 5847 5847 5846 5845 5844 5844 5844 5844 5843 5842 5842 5841 5840 5839 5837 5836 5835 5834 5833
5822 5825 5826 5828 5830 5830 5831 5835 5839 5841 5841 5843 5844 5844 5843 5843 5844 5846 5847 5848 5849 5850 5850 5849 5849 5848 5848 5847 5846 5845 5844 5844 5843 5842 5842 5841 5840 5839 5839 5838 5837 5836 5835 5834 5833 5832 5830 5829 5828
5816 5819 5822 5823 5826 5826 5827 5831 5835 5837 5837 5839 5840 5839 5839 5839 5841 5843 5844 5845 5846 5847 5847 5847 5847 5845 5845 5844 5843 5842 5841 5841 5840 5839 5838 5837 5836 5835 5834 5833 5832 5832 5831 5829 5828 5827 5826 5825 5823
5811 5813 5817 5819 5821 5822 5823 5827 5830 5832 5833 5835 5835 5834 5835 5836 5837 5839 5840 5842 5844 5845 5845 5845 5844 5843 5842 5841 5840 5840 5838 5837 5836 5835 5835 5834 5833 5831 5830 5829 5828 5828 5827 5825 5824 5823 5821 5819 5817
5804 5807 5813 5815 5815 5817 5820 5823 5825 5827 5829 5831 5831 5831 5832 5833 5834 5836 5837 5839 5840 5842 5842 5842 5842 5841 5839 5838 5837 5836 5835 5833 5832 5831 5830 5829 5828 5827 5826 5825 5824 5823 5822 5820 5819 5817 5815 5812 5810
5795 5802 5809 5810 5809 5811 5816 5819 5821 5823 5825 5826 5827 5827 5829 5830 5831 5833 5834 5836 5837 5839 5839 5839 5839 5838 5836 5835 5834 5832 5831 5829 5828 5826 5825 5824 5823 5822 5821 5820 5818 5817 5816 5814 5812 5810 5808 5805 5802
5789 5798 5803 5804 5803 5807 5810 5814 5818 5819 5821 5821 5823 5824 5825 5827 5828 5829 5830 5832 5834 5835 5835 5836 5835 5834 5833 5832 5830 5828 5827 5825 5823 5821 5820 5819 5818 5817 5816 5814 5813 5811 5809 5807 5805 5801 5799 5796 5793
5783 5793 5795 5797 5797 5802 5805 5809 5813 5815 5816 5818 5818 5820 5820 5822 5824 5825 5827 5829 5830 5831 5832 5832 5832 5831 5829 5828 5826 5824 5822 5821 5819 5818 5817 5815 5814 5812 5810 5808 5806 5804 5801 5798 5795 5792 5789 5786 5783
5776 5785 5788 5789 5791 5798 5800 5805 5808 5813 5809 5811 5814 5814 5816 5819 5821 5822 5824 5825 5826 5827 5828 5828 5828 5827 5825 5823 5821 5820 5818 5817 5815 5814 5813 5811 5808 5806 5803 5801 5798 5795 5793 5790 5786 5783 5780 5777 5774
5773 5778 5781 5780 5784 5791 5796 5799 5804 5803 5802 5808 5809 5810 5814 5816 5818 5819 5820 5821 5822 5824 5824 5824 5823 5822 5820 5819 5817 5816 5814 5812 5811 5809 5808 5805 5802 5799 5796 5793 5790 5787 5784 5780 5777 5775 5773 5770 5767
5763 5768 5770 5774 5780 5786 5791 5795 5799 5793 5801 5803 5805 5807 5809 5812 5814 5815 5816 5818 5819 5819 5820 5819 5818 5817 5815 5814 5812 5811 5809 5807 5806 5804 5802 5800 5796 5792 5789 5785 5782 5779 5776 5773 5771 5768 5766 5763 5760
5752 5759 5762 5771 5775 5781 5785 5792 5788 5792 5796 5799 5801 5803 5805 5808 5809 5811 5812 5814 5814 5814 5814 5814 5812 5811 5809 5808 5807 5805 5804 5802 5800 5798 5795 5792 5789 5785 5782 5778 5775 5772 5769 5766 5763 5761 5758 5755 5752
5741 5751 5758 5764 5770 5772 5781 5784 5782 5787 5792 5795 5797 5799 5801 5803 5805 5807 5808 5808 5809 5809 5808 5807 5806 5805 5804 5802 5801 5800 5798 5796 5793 5791 5787 5784 5781 5777 5775 5772 5769 5766 5762 5759 5756 5752 5749 5746 5743
5734 5744 5755 5760 5763 5768 5773 5778 5779 5783 5787 5791 5794 5795 5798 5800 5801 5802 5802 5803 5803 5803 5802 5801 5800 5798 5797 5796 5795 5794 5792 5790 5787 5783 5779 5776 5773 5770 5768 5765 5762 5759 5756 5752 5749 5745 5741 5738 5734
5732 5746 5750 5755 5757 5763 5767 5772 5777 5779 5783 5786 5789 5790 5792 5794 5795 5796 5797 5798 5798 5797 5796 5795 5794 5793 5792 5790 5789 5788 5786 5783 5779 5775 5772 5769 5767 5764 5761 5758 5754 5751 5747 5744 5740 5736 5733 5728 5723
5730 5737 5743 5745 5752 5759 5761 5769 5771 5772 5778 5781 5783 5785 5787 5789 5790 5791 5792 5792 5791 5791 5790 5790 5788 5787 5786 5785 5784 5782 5779 5776 5772 5769 5765 5763 5760 5756 5753 5750 5746 5742 5738 5734 5730 5726 5722 5717 5711
5719 5730 5736 5742 5748 5754 5758 5765 5766 5768 5773 5776 5778 5780 5783 5784 5785 5786 5786 5785 5785 5784 5785 5784 5783 5782 5780 5779 5777 5774 5771 5769 5766 5762 5759 5755 5752 5749 5745 5741 5737 5734 5730 5725 5720 5715 5710 5705 5700
5716 5726 5730 5736 5742 5747 5753 5760 5761 5763 5768 5771 5773 5776 5778 5779 5780 5780 5780 5779 5778 5779 5779 5778 5778 5776 5775 5773 5769 5766 5763 5761 5758 5755 5751 5748 5744 5740 5736 5732 5728 5724 5719 5715 5709 5703 5697 5690 5683
5715 5720 5725 5730 5735 5743 5749 5754 5757 5758 5762 5766 5769 5772 5774 5774 5775 5775 5774 5773 5773 5774 5773 5774 5773 5771 5769 5766 5763 5760 5757 5753 5750 5747 5743 5739 5735 5731 5727 5723 5719 5713 5707 5701 5695 5688 5681 5673 5665
5707 5713 5721 5727 5732 5739 5744 5749 5752 5752 5756 5760 5763 5766 5767 5769 5769 5768 5768 5767 5768 5768 5768 5768 5767 5764 5762 5758 5756 5753 5750 5746 5743 5739 5735 5731 5727 5722 5718 5713 5708 5702 5695 5688 5681 5673 5665 5657 5648
5700 5708 5717 5723 5726 5736 5739 5743 5747 5747 5751 5755 5758 5760 5762 5763 5762 5762 5762 5762 5762 5763 5763 5762 5760 5757 5755 5752 5749 5745 5742 5738 5734 5730 5726 5721 5717 5712 5707 5702 5695 5689 5681 5673 5665 5657 5648 5638 5628
5697 5705 5712 5717 5725 5731 5734 5738 5740 5744 5747 5749 5752 5754 5756 5756 5755 5755 5756 5756 5756 5756 5756 5754 5753 5750 5747 5744 5741 5737 5733 5730 5726 5722 5717 5713 5708 5702 5696 5689 5682 5675 5667 5659 5650 5640 5630 5619 5609
5693 5700 5708 5715 5723 5727 5731 5735 5736 5739 5741 5743 5746 5749 5750 5750 5749 5750 5750 5750 5749 5749 5748 5746 5745 5742 5739 5736 5733 5729 5725 5721 5717 5713 5708 5703 5697 5690 5683 5676 5668 5659 5650 5641 5631 5621 5611 5599 5587
5693 5702 5706 5712 5719 5722 5727 5729 5730 5734 5736 5738 5741 5743 5744 5743 5744 5744 5743 5742 5742 5741 5740 5738 5737 5734 5730 5727 5724 5720 5717 5712 5708 5702 5697 5690 5683 5676 5668 5659 5651 5642 5632 5623 5613 5602 5591 5578 5564
5689 5694 5702 5709 5714 5718 5723 5727 5727 5728 5731 5733 5735 5736 5736 5736 5737 5736 5735 5735 5734 5733 5732 5731 5728 5726 5722 5718 5715 5712 5707 5702 5696 5690 5684 5676 5669 5661 5652 5643 5634 5624 5615 5604 5594 5582 5569 5556 5544
5686 5693 5697 5701 5710 5714 5719 5723 5722 5723 5725 5727 5729 5728 5729 5730 5729 5728 5728 5728 5727 5726 5724 5722 5720 5716 5713 5710 5706 5702 5696 5690 5684 5677 5670 5662 5654 5645 5636 5627 5617 5607 5596 5584 5573 5562 5550 5537 5522